Location: Forestville
(38.4740°N, 122.8890°W)
Time: 05:59:55
(UTC-08:00)

Amateur Radio Satellites - All Passes

Search period start: 15 December 2017 05:29
Search period end: 16 December 2017 05:29
Location: Forestville, 38.4740°N, 122.8890°W

Satellite Date Start Highest point End Downlink Frequencies (MHz)
Time Altitude Azimuth
LilacSat-2 15 Dec 05:30:34 05:33:39 22° 95° (E) 05:36:43 437.200
AO-85 15 Dec 05:31:14 05:34:32 18° 46° (NE) 05:37:59 145.980
HO-68 15 Dec 05:34:42 05:36:03 11° 88° (E) 05:37:24 435.675
ITAMSAT 1 15 Dec 05:36:27 05:39:09 14° 299° (WNW) 05:41:53 435.822/435.867
PCSat 15 Dec 05:41:37 05:43:51 13° 258° (WSW) 05:46:06 145.827
XW-2D 15 Dec 05:43:48 05:47:14 30° 97° (E) 05:50:39 145.860 - 145.880
NUDT-PHONESAT 15 Dec 05:46:04 05:48:55 20° 95° (E) 05:51:45 437.300
NO-84 15 Dec 05:46:08 05:48:46 31° 128° (SE) 05:51:33 435.350 FM
KAITUO 1B 15 Dec 05:50:39 05:53:49 25° 96° (E) 05:56:58 145.475/437.950
XW-2B 15 Dec 05:59:28 06:03:12 46° 99° (E) 06:06:54 145.730 - 145.750
KKS-1 15 Dec 06:05:22 06:07:14 12° 268° (W) 06:09:06 437.445
XW-2F 15 Dec 06:10:56 06:14:45 62° 100° (E) 06:18:32 145.980 - 146.000
BEESAT 3 15 Dec 06:13:15 06:15:34 15° 250° (WSW) 06:17:50 437.485
STRAND 1 15 Dec 06:18:50 06:23:36 41° 70° (ENE) 06:28:22 437.568
XW-2C 15 Dec 06:26:50 06:30:41 73° 284° (WNW) 06:34:30 145.795 - 145.815
DOVE 4 15 Dec 06:29:16 06:31:39 14° 296° (WNW) 06:33:59 437.250
CUBEBUG 2 15 Dec 06:32:41 06:35:27 16° 93° (E) 06:38:14 437.445
STARS 15 Dec 06:47:19 06:48:24 11° 269° (W) 06:49:30 437.465
SEEDS 15 Dec 06:49:17 06:52:50 25° 95° (E) 06:56:20 437.485
BEESAT 2 15 Dec 06:54:08 06:57:10 21° 249° (WSW) 07:00:10 435.950
LilacSat-2 15 Dec 07:04:43 07:07:49 23° 290° (WNW) 07:10:54 437.200
CUTE-I 15 Dec 07:04:47 07:09:58 53° 288° (WNW) 07:15:07 437.470
FO-29 15 Dec 07:04:49 07:12:02 45° 68° (ENE) 07:19:22 435.910
AAUSAT CUBESAT 2 15 Dec 07:06:50 07:09:30 16° 93° (E) 07:12:07 437.432
AO-85 15 Dec 07:10:29 07:15:20 66° 242° (WSW) 07:20:28 145.980
CUTE 1.7 + AOD 2 15 Dec 07:12:59 07:17:18 85° 99° (E) 07:21:35 437.475
HO-68 15 Dec 07:17:38 07:24:49 75° 104° (ESE) 07:31:57 435.675
XW-2D 15 Dec 07:18:37 07:21:08 17° 292° (WNW) 07:23:39 145.860 - 145.880
NUDT-PHONESAT 15 Dec 07:19:39 07:22:40 23° 290° (WNW) 07:25:40 437.300
NO-84 15 Dec 07:23:41 07:26:03 20° 328° (NNW) 07:28:32 435.350 FM
KAITUO 1B 15 Dec 07:24:50 07:27:37 20° 291° (WNW) 07:30:24 145.475/437.950
AO-73 15 Dec 07:27:59 07:30:57 18° 93° (E) 07:33:56 145.935
XW-2B 15 Dec 07:35:30 07:36:56 12° 294° (WNW) 07:38:20 145.730 - 145.750
XW-2A 15 Dec 07:43:03 07:46:20 42° 99° (E) 07:49:37 145.665 - 145.685
SRMSAT 15 Dec 07:45:31 07:47:44 12° 177° (S) 07:49:57 437.500
STRAND 1 15 Dec 07:58:59 08:02:53 22° 266° (W) 08:06:48 437.568
UWE-3 15 Dec 08:06:03 08:10:23 76° 283° (WNW) 08:14:50 435.000/436.395/437.385
CUBEBUG 2 15 Dec 08:08:11 08:12:10 39° 287° (WNW) 08:16:15 437.445
SEEDS 15 Dec 08:24:56 08:28:23 24° 291° (WNW) 08:31:48 437.485
O/OREOS (USA 219) 15 Dec 08:29:21 08:33:54 74° 291° (WNW) 08:38:30 437.305
ZACube-1 15 Dec 08:29:26 08:33:50 81° 282° (WNW) 08:38:17 437.345
AAUSAT CUBESAT 2 15 Dec 08:41:13 08:45:02 36° 288° (WNW) 08:48:49 437.432
TIGRISAT 15 Dec 08:46:58 08:50:57 38° 72° (ENE) 08:54:55 435.000
Oscar 11 15 Dec 08:47:54 08:52:17 89° 299° (WNW) 08:56:38 .
FO-29 15 Dec 08:49:56 08:56:59 39° 264° (W) 09:04:13 435.910
UNISAT 6 15 Dec 08:50:18 08:54:26 47° 73° (ENE) 08:58:32 437.425
AO-73 15 Dec 09:03:13 09:07:16 38° 288° (WNW) 09:11:23 145.935
HO-68 15 Dec 09:06:47 09:11:46 21° 302° (WNW) 09:16:44 435.675
PRISM 15 Dec 09:15:48 09:19:14 26° 69° (ENE) 09:22:40 437.425
SRMSAT 15 Dec 09:34:43 09:35:59 11° 188° (S) 09:37:16 437.500
DELFI C3 15 Dec 09:35:29 09:39:23 59° 100° (E) 09:43:14 145.870
Max Valier Satellite 15 Dec 09:35:55 09:39:26 38° 98° (E) 09:42:55 145.860
EO-88 15 Dec 10:01:58 10:05:35 56° 100° (E) 10:09:10 145.990 - 145.960
AIST 2D 15 Dec 10:06:45 10:09:48 28° 72° (ENE) 10:12:53 435.315
QB50P2 15 Dec 10:09:29 10:11:29 13° 65° (ENE) 10:13:28 145.880/145.840
ISS 15 Dec 10:09:50 10:12:00 17° 130° (SE) 10:14:11 437.550
TIGRISAT 15 Dec 10:25:08 10:27:47 16° 267° (W) 10:30:25 435.000
UNISAT 6 15 Dec 10:29:18 10:31:22 13° 268° (W) 10:33:25 437.425
LO-87 15 Dec 10:31:17 10:33:05 13° 93° (E) 10:34:53 145.935 - 145.965
NANOSAT C BR1 15 Dec 10:38:47 10:42:00 22° 68° (ENE) 10:45:13 145.865
PRISM 15 Dec 10:51:03 10:54:24 23° 264° (W) 10:57:47 437.425
EO-79 15 Dec 10:53:57 10:57:48 37° 72° (ENE) 11:01:40 145.935-145.965
nSIGHT-1 15 Dec 10:59:52 11:03:04 83° 138° (SE) 11:06:17 .
ESTCUBE 1 15 Dec 11:02:23 11:06:18 28° 96° (E) 11:10:11 437.505/2401.250
Max Valier Satellite 15 Dec 11:11:07 11:12:52 13° 293° (WNW) 11:14:37 145.860
POLYITAN 1 15 Dec 11:16:50 11:20:59 70° 75° (ENE) 11:25:09 437.675
SPROUT 15 Dec 11:31:31 11:33:17 12° 92° (E) 11:35:03 437.525
AO-91 15 Dec 11:31:50 11:32:33 10° 65° (ENE) 11:33:15 145.960
AIST 2D 15 Dec 11:41:05 11:43:00 14° 267° (W) 11:44:56 435.315
QB50P2 15 Dec 11:42:44 11:46:48 49° 260° (W) 11:50:54 145.880/145.840
ISS 15 Dec 11:45:02 11:48:12 46° 325° (NW) 11:51:24 437.550
DUCHIFAT 1 15 Dec 11:46:18 11:50:26 68° 259° (WSW) 11:54:36 145.980
LO-87 15 Dec 12:03:24 12:06:33 30° 287° (WNW) 12:09:41 145.935 - 145.965
NANOSAT C BR1 15 Dec 12:13:58 12:17:32 27° 263° (W) 12:21:08 145.865
Oscar 19 15 Dec 12:18:41 12:23:22 37° 69° (ENE) 12:28:05 437.125/150
NO-84 15 Dec 12:19:19 12:22:00 19° 31° (NNE) 12:24:49 435.350 FM
BUGSAT 1 15 Dec 12:23:21 12:27:22 70° 75° (ENE) 12:31:23 437.445
EO-79 15 Dec 12:31:02 12:33:39 16° 267° (W) 12:36:18 145.935-145.965
VELOX 1 15 Dec 12:31:50 12:35:54 36° 98° (E) 12:39:56 145.980
nSIGHT-1 15 Dec 12:37:31 12:39:38 16° 337° (NNW) 12:41:45 .
ESTCUBE 1 15 Dec 12:39:14 12:42:59 26° 291° (WNW) 12:46:41 437.505/2401.250
AO-7 15 Dec 12:42:23 12:46:50 16° 49° (NE) 12:51:17 .
AO-91 15 Dec 13:03:33 13:08:31 80° 256° (WSW) 13:13:01 145.960
SPROUT 15 Dec 13:05:19 13:09:25 50° 287° (WNW) 13:13:32 437.525
Gurwin Techsat 1B 15 Dec 13:07:15 13:12:33 79° 75° (ENE) 13:17:53 435.225
UKube-1 15 Dec 13:09:43 13:10:25 10° 91° (E) 13:11:07 .
YUBILEINY 15 Dec 13:10:21 13:18:03 32° 71° (ENE) 13:25:38 435.215
M-CUBED/EXP-1 PRIME 15 Dec 13:21:40 13:23:16 12° 57° (ENE) 13:24:53 437.505
ISS 15 Dec 13:23:59 13:25:21 12° 344° (NNW) 13:26:43 437.550
DX 1 15 Dec 13:24:48 13:28:32 28° 97° (E) 13:32:14 434.975-435.025
ITAMSAT 1 15 Dec 13:36:35 13:38:04 11° 59° (ENE) 13:39:33 435.822/435.867
RS-15 15 Dec 13:39:22 13:50:47 48° 109° (ESE) 14:02:10 29.354- 29.394
NO-84 15 Dec 13:55:44 13:59:34 69° 227° (SW) 14:03:39 435.350 FM
Oscar 19 15 Dec 13:58:36 14:02:44 24° 265° (W) 14:06:54 437.125/150
VELOX 1 15 Dec 14:08:56 14:12:03 19° 293° (WNW) 14:15:10 145.980
50 SAT 15 Dec 14:27:56 14:30:46 31° 287° (WNW) 14:33:35 437.505
AO-7 15 Dec 14:29:55 14:38:08 72° 69° (ENE) 14:46:26 .
SO-50 15 Dec 14:31:31 14:35:24 30° 113° (ESE) 14:39:20 436.795
MOZHAYETS 4 15 Dec 14:36:55 14:40:39 24° 95° (E) 14:44:22
UKube-1 15 Dec 14:42:32 14:46:47 61° 286° (WNW) 14:51:01 .
Gurwin Techsat 1B 15 Dec 14:51:23 14:53:03 11° 270° (W) 14:54:44 435.225
M-CUBED/EXP-1 PRIME 15 Dec 14:52:37 14:56:54 75° 254° (WSW) 15:01:28 437.505
DX 1 15 Dec 15:01:05 15:04:34 24° 292° (WNW) 15:08:00 434.975-435.025
BEESAT 15 Dec 15:06:27 15:10:43 32° 98° (E) 15:14:57 436.000
YUBILEINY 15 Dec 15:06:41 15:15:08 53° 270° (W) 15:23:31 435.215
ITAMSAT 1 15 Dec 15:11:31 15:16:44 89° 257° (WSW) 15:21:58 435.822/435.867
ITUPSAT 1 15 Dec 15:35:08 15:39:53 64° 101° (ESE) 15:44:37 437.325
RS-15 15 Dec 15:51:09 16:03:09 55° 310° (NW) 16:15:03 29.354- 29.394
DOVE 4 15 Dec 15:52:47 15:57:47 45° 73° (ENE) 16:02:40 437.250
nSIGHT-1 15 Dec 15:52:51 15:54:22 13° 18° (NNE) 15:55:52 .
CUBESAT XI-V 15 Dec 16:02:27 16:06:59 46° 99° (E) 16:11:29 437.345
SO-50 15 Dec 16:11:59 16:15:49 27° 310° (NW) 16:19:42 436.795
MOZHAYETS 4 15 Dec 16:13:43 16:17:47 31° 290° (WNW) 16:21:50
KKS-1 15 Dec 16:20:38 16:22:03 11° 91° (E) 16:23:28 437.445
XW-2D 15 Dec 16:24:56 16:26:40 13° 66° (ENE) 16:28:25 145.860 - 145.880
AO-7 15 Dec 16:25:22 16:31:31 23° 266° (W) 16:37:44 .
KAITUO 1B 15 Dec 16:31:49 16:32:02 10° 65° (ENE) 16:32:14 145.475/437.950
ISS 15 Dec 16:38:12 16:40:38 19° 25° (NNE) 16:43:03 437.550
XW-2B 15 Dec 16:39:50 16:42:29 18° 69° (ENE) 16:45:10 145.730 - 145.750
BEESAT 15 Dec 16:44:27 16:48:18 25° 293° (WNW) 16:52:08 436.000
CUTE-I 15 Dec 16:46:11 16:50:34 26° 66° (ENE) 16:54:58 437.470
XW-2F 15 Dec 16:50:27 16:53:28 23° 70° (ENE) 16:56:31 145.980 - 146.000
PCSat 15 Dec 16:56:48 16:58:24 11° 102° (ESE) 17:00:00 145.827
STARS 15 Dec 17:00:09 17:01:47 12° 92° (E) 17:03:24 437.465
O/OREOS (USA 219) 15 Dec 17:02:51 17:05:40 16° 56° (ENE) 17:08:28 437.305
XW-2C 15 Dec 17:06:16 17:09:48 39° 73° (ENE) 17:13:23 145.795 - 145.815
ITUPSAT 1 15 Dec 17:14:49 17:17:09 14° 297° (WNW) 17:19:28 437.325
nSIGHT-1 15 Dec 17:27:58 17:31:08 56° 37° (NE) 17:34:17 .
CUBEBUG 2 15 Dec 17:31:05 17:32:25 11° 65° (ENE) 17:33:45 437.445
DOVE 4 15 Dec 17:31:40 17:35:34 21° 267° (W) 17:39:24 437.250
SEEDS 15 Dec 17:40:17 17:42:46 15° 66° (ENE) 17:45:15 437.485
CUBESAT XI-V 15 Dec 17:40:52 17:43:58 18° 294° (WNW) 17:47:01 437.345
LilacSat-2 15 Dec 17:43:57 17:47:43 57° 261° (W) 17:51:30 437.200
HO-68 15 Dec 17:44:22 17:51:12 48° 67° (ENE) 17:58:01 435.675
KKS-1 15 Dec 17:54:35 17:58:57 59° 286° (WNW) 18:03:16 437.445
NUDT-PHONESAT 15 Dec 17:55:55 17:59:33 67° 259° (W) 18:03:16 437.300
XW-2D 15 Dec 17:56:52 18:00:26 40° 262° (W) 18:04:03 145.860 - 145.880
KAITUO 1B 15 Dec 18:01:50 18:05:29 52° 261° (W) 18:09:11 145.475/437.950
CUTE 1.7 + AOD 2 15 Dec 18:03:45 18:07:49 47° 74° (ENE) 18:11:56 437.475
RS-15 15 Dec 18:10:33 18:19:20 22° 340° (NNW) 18:27:59 29.354- 29.394
XW-2B 15 Dec 18:13:12 18:16:26 27° 264° (W) 18:19:42 145.730 - 145.750
ISS 15 Dec 18:14:07 18:17:22 63° 222° (SW) 18:20:36 437.550
XW-2A 15 Dec 18:14:25 18:15:34 11° 67° (ENE) 18:16:44 145.665 - 145.685
AO-73 15 Dec 18:24:08 18:25:08 11° 64° (ENE) 18:26:07 145.935
XW-2F 15 Dec 18:24:36 18:27:29 21° 265° (W) 18:30:24 145.980 - 146.000
CUTE-I 15 Dec 18:25:26 18:30:23 38° 262° (W) 18:35:22 437.470
STRAND 1 15 Dec 18:31:59 18:34:56 15° 92° (E) 18:37:50 437.568
STARS 15 Dec 18:34:10 18:38:26 55° 286° (WNW) 18:42:39 437.465
PCSat 15 Dec 18:35:35 18:40:59 84° 297° (WNW) 18:46:27 145.827
O/OREOS (USA 219) 15 Dec 18:41:02 18:45:21 48° 254° (WSW) 18:49:38 437.305
XW-2C 15 Dec 18:42:35 18:44:09 12° 268° (W) 18:45:43 145.795 - 145.815
UWE-3 15 Dec 19:01:23 19:05:30 69° 76° (ENE) 19:09:37 435.000/436.395/437.385
CUBEBUG 2 15 Dec 19:04:25 19:08:33 56° 260° (W) 19:12:39 437.445
nSIGHT-1 15 Dec 19:05:27 19:06:58 13° 231° (SW) 19:08:29 .
SEEDS 15 Dec 19:14:02 19:18:03 42° 262° (W) 19:22:06 437.485
ZACube-1 15 Dec 19:23:35 19:27:38 62° 75° (ENE) 19:31:45 437.345
AAUSAT CUBESAT 2 15 Dec 19:28:49 19:32:58 71° 259° (W) 19:37:10 437.432
HO-68 15 Dec 19:32:52 19:39:02 31° 264° (W) 19:45:17 435.675
Oscar 11 15 Dec 19:40:48 19:45:01 55° 74° (ENE) 19:49:15 .
CUTE 1.7 + AOD 2 15 Dec 19:41:50 19:43:52 13° 269° (W) 19:45:56 437.475
XW-2A 15 Dec 19:44:51 19:47:54 33° 262° (W) 19:50:59 145.665 - 145.685
AO-73 15 Dec 19:56:46 20:00:48 59° 259° (W) 20:04:54 145.935
BEESAT 3 15 Dec 19:59:11 20:03:08 70° 302° (WNW) 20:07:08 437.485
FO-29 15 Dec 20:02:11 20:08:26 39° 95° (E) 20:13:58 435.910
STRAND 1 15 Dec 20:09:26 20:14:26 57° 287° (WNW) 20:19:24 437.568
Max Valier Satellite 15 Dec 20:14:23 20:16:22 14° 67° (ENE) 20:18:22 145.860
DELFI C3 15 Dec 20:19:10 20:22:32 27° 71° (ENE) 20:25:55 145.870
PCSat 15 Dec 20:22:29 20:25:12 14° 317° (NW) 20:27:57 145.827
RS-15 15 Dec 20:29:52 20:38:14 21° 17° (NNE) 20:46:20 29.354- 29.394
EO-88 15 Dec 20:38:33 20:41:11 19° 69° (ENE) 20:43:49 145.990 - 145.960
BEESAT 2 15 Dec 20:42:13 20:46:14 90° 216° (SW) 20:50:18 435.950
UNISAT 6 15 Dec 20:45:23 20:46:34 11° 91° (E) 20:47:45 437.425
FALCONSAT 3 15 Dec 21:06:00 21:08:37 18° 156° (SSE) 21:11:14 435.103
Oscar 11 15 Dec 21:20:03 21:21:28 11° 270° (W) 21:22:53 .
AO-85 15 Dec 21:23:56 21:27:43 56° 117° (ESE) 21:31:42 145.980
Max Valier Satellite 15 Dec 21:46:34 21:49:52 32° 263° (W) 21:53:13 145.860
FO-29 15 Dec 21:47:23 21:53:18 32° 296° (WNW) 21:58:37 435.910
DELFI C3 15 Dec 21:54:13 21:57:13 20° 265° (W) 22:00:15 145.870
ESTCUBE 1 15 Dec 22:00:42 22:04:10 22° 68° (ENE) 22:07:40 437.505/2401.250
EO-88 15 Dec 22:11:40 22:14:38 23° 264° (W) 22:17:37 145.990 - 145.960
TIGRISAT 15 Dec 22:15:34 22:19:55 74° 285° (WNW) 22:24:21 435.000
UNISAT 6 15 Dec 22:19:18 22:23:36 60° 285° (WNW) 22:27:59 437.425
BEESAT 2 15 Dec 22:23:48 22:24:33 10° 318° (NW) 22:25:19 435.950
PRISM 15 Dec 22:32:40 22:36:39 48° 100° (E) 22:40:35 437.425
LO-87 15 Dec 22:36:57 22:40:28 74° 76° (ENE) 22:44:00 145.935 - 145.965
RS-15 15 Dec 22:43:06 22:54:35 51° 48° (NE) 23:05:24 29.354- 29.394
FALCONSAT 3 15 Dec 22:43:45 22:47:16 44° 170° (S) 22:50:48 435.103
SO-50 15 Dec 23:03:48 23:07:26 22° 47° (NE) 23:11:07 436.795
POLYITAN 1 15 Dec 23:04:44 23:06:33 12° 92° (E) 23:08:23 437.675
AIST 2D 15 Dec 23:05:21 23:08:45 42° 99° (E) 23:12:07 435.315
AO-85 15 Dec 23:06:21 23:08:31 14° 317° (NW) 23:10:46 145.980
VELOX 1 15 Dec 23:27:34 23:31:19 27° 69° (ENE) 23:35:05 145.980
QB50P2 15 Dec 23:29:01 23:32:39 27° 96° (E) 23:36:16 145.880/145.840
DUCHIFAT 1 15 Dec 23:32:11 23:35:17 20° 95° (E) 23:38:23 145.980
ESTCUBE 1 15 Dec 23:36:43 23:40:46 32° 263° (W) 23:44:50 437.505/2401.250
SPROUT 15 Dec 23:56:25 00:00:39 84° 258° (WSW) 00:04:55 437.525
NANOSAT C BR1 15 Dec 23:58:42 00:02:48 47° 100° (E) 00:06:51 145.865
BUGSAT 1 16 Dec 00:08:56 00:09:43 10° 92° (E) 00:10:29 437.445
PRISM 16 Dec 00:09:37 00:11:28 13° 295° (WNW) 00:13:17 437.425
EO-79 16 Dec 00:14:56 00:19:10 87° 104° (ESE) 00:23:24 145.935-145.965
DX 1 16 Dec 00:19:07 00:22:25 21° 67° (ENE) 00:25:44 434.975-435.025
FALCONSAT 3 16 Dec 00:22:33 00:26:08 50° 185° (S) 00:29:43 435.103
Oscar 19 16 Dec 00:33:00 00:35:45 14° 91° (E) 00:38:29 437.125/150
POLYITAN 1 16 Dec 00:38:29 00:42:34 49° 286° (WNW) 00:46:39 437.675
AIST 2D 16 Dec 00:40:43 00:41:28 11° 294° (WNW) 00:42:13 435.315
SO-50 16 Dec 00:43:37 00:48:06 45° 244° (WSW) 00:52:37 436.795
50 SAT 16 Dec 00:51:49 00:54:50 43° 74° (ENE) 00:57:52 437.505
RS-15 16 Dec 00:56:01 01:06:53 48° 251° (WSW) 01:17:14 29.354- 29.394
AO-91 16 Dec 00:56:25 00:58:30 15° 94° (E) 01:00:35 145.960
VELOX 1 16 Dec 01:04:00 01:07:40 25° 264° (W) 01:11:22 145.980
QB50P2 16 Dec 01:04:58 01:08:16 23° 291° (WNW) 01:11:35 145.880/145.840
DUCHIFAT 1 16 Dec 01:07:16 01:10:57 30° 289° (WNW) 01:14:37 145.980
Gurwin Techsat 1B 16 Dec 01:25:15 01:30:05 34° 97° (E) 01:34:52 435.225
UKube-1 16 Dec 01:34:53 01:39:13 89° 258° (WSW) 01:43:34 .
NANOSAT C BR1 16 Dec 01:35:55 01:38:03 14° 295° (WNW) 01:40:11 145.865
MOZHAYETS 4 16 Dec 01:37:46 01:41:02 20° 67° (ENE) 01:44:19
BUGSAT 1 16 Dec 01:41:23 01:45:21 53° 285° (WNW) 01:49:18 437.445
DX 1 16 Dec 01:54:27 01:58:23 32° 262° (W) 02:02:19 434.975-435.025
FALCONSAT 3 16 Dec 02:01:48 02:04:52 25° 200° (SSW) 02:07:56 435.103
YUBILEINY 16 Dec 02:09:23 02:17:16 39° 86° (E) 02:25:10 435.215
Oscar 19 16 Dec 02:10:19 02:15:27 63° 287° (WNW) 02:20:35 437.125/150
BEESAT 16 Dec 02:11:21 02:15:32 32° 69° (ENE) 02:19:44 436.000
AO-91 16 Dec 02:32:18 02:35:00 22° 290° (WNW) 02:37:41 145.960
AO-7 16 Dec 02:34:11 02:40:46 25° 95° (E) 02:47:18 .
ITUPSAT 1 16 Dec 02:40:11 02:44:52 63° 74° (ENE) 02:49:34 437.325
CUBESAT XI-V 16 Dec 03:04:05 03:08:22 38° 71° (ENE) 03:12:41 437.345
Gurwin Techsat 1B 16 Dec 03:05:24 03:09:52 28° 293° (WNW) 03:14:19 435.225
MOZHAYETS 4 16 Dec 03:13:41 03:17:54 37° 262° (W) 03:22:08
PCSat 16 Dec 03:24:56 03:30:16 56° 59° (ENE) 03:35:35 145.827
ITAMSAT 1 16 Dec 03:26:07 03:30:51 35° 98° (E) 03:35:33 435.822/435.867
BEESAT 16 Dec 03:49:27 03:53:17 24° 264° (W) 03:57:09 436.000
DOVE 4 16 Dec 03:56:07 03:57:13 11° 89° (E) 03:58:18 437.250
YUBILEINY 16 Dec 04:05:35 04:13:52 44° 285° (WNW) 04:22:14 435.215
M-CUBED/EXP-1 PRIME 16 Dec 04:06:41 04:11:10 80° 289° (WNW) 04:15:19 437.505
BEESAT 3 16 Dec 04:17:07 04:20:49 38° 54° (NE) 04:24:27 437.485
ITUPSAT 1 16 Dec 04:21:11 04:23:04 12° 269° (W) 04:24:57 437.325
AO-7 16 Dec 04:25:45 04:34:02 68° 292° (WNW) 04:42:18 .
CUBESAT XI-V 16 Dec 04:42:26 04:45:49 20° 267° (W) 04:49:14 437.345
KKS-1 16 Dec 04:50:36 04:55:04 78° 257° (WSW) 04:59:33 437.445
JUGNU 16 Dec 04:53:39 04:55:40 12° 180° (S) 04:57:41 437.505
BEESAT 2 16 Dec 05:01:14 05:04:53 32° 53° (NE) 05:08:28 435.950
ITAMSAT 1 16 Dec 05:05:53 05:10:07 26° 294° (WNW) 05:14:22 435.822/435.867
CUTE-I 16 Dec 05:07:17 05:08:05 10° 89° (E) 05:08:53 437.470
PCSat 16 Dec 05:09:33 05:13:10 18° 255° (WSW) 05:16:46 145.827
NO-84 16 Dec 05:10:20 05:12:36 21° 126° (SE) 05:14:57 435.350 FM
LilacSat-2 16 Dec 05:19:26 05:21:54 16° 93° (E) 05:24:22 437.200
